Terminal Aerodrome Forecast
Issued by NWS Sterling, VA

Current Version | Previous Version | Graphics & Text | Print | Product List | Glossary On
Versions: 1 2 3 4 5 6 7 8 9 10 11 12 13 14 15 16 17 18 19 20 21 22 23 24 25 26 27 28 29 30
000
FTUS41 KLWX 021452 AAA
TAFIAD
TAF AMD
KIAD 021452Z 0215/0318 VRB03KT P6SM VCSH OVC060
     FM021700 VRB03KT P6SM BKN070
     FM022300 10004KT P6SM SCT050 BKN120
     FM031000 04004KT 5SM BR SCT015 BKN080
     FM031300 05005KT 6SM -SHRA BR SCT015 BKN060=

USA.gov is the U.S. government's official web portal to all federal, state and local government web resources and services.